| time (UTC) | temp F | wind direction | speed knots | gust knots | rain 1hr in | rain 24hr in | rain mn in | humidity % | barometer mb |
| 20260831060043 | 52 | 242 | 10.4 | 17.4 | 0.00 | 0.01 | 0.00 | 67 | 1012.8 |
| 20260831054537 | 53 | 253 | 11.3 | 19.1 | 0.00 | 0.01 | 0.01 | 66 | 1012.7 |
| 20260831053036 | 53 | 257 | 11.3 | 16.5 | 0.00 | 0.01 | 0.01 | 65 | 1012.5 |
| 20260831051538 | 53 | 263 | 12.2 | 20.0 | 0.00 | 0.01 | 0.01 | 66 | 1012.5 |
| 20260831050037 | 53 | 276 | 11.3 | 19.1 | 0.00 | 0.01 | 0.01 | 67 | 1012.4 |
| 20260831044536 | 53 | 271 | 12.2 | 17.4 | 0.00 | 0.01 | 0.01 | 66 | 1012.6 |
| 20260831043037 | 54 | 291 | 13.0 | 19.1 | 0.00 | 0.01 | 0.01 | 66 | 1012.5 |
| 20260831041536 | 54 | 296 | 11.3 | 20.9 | 0.00 | 0.01 | 0.01 | 64 | 1012.7 |
| 20260831040035 | 58 | 292 | 13.0 | 20.0 | 0.00 | 0.01 | 0.01 | 52 | 1012.6 |
| 20260831034537 | 58 | 267 | 15.6 | 22.6 | 0.00 | 0.01 | 0.01 | 51 | 1012.5 |
| 20260831033039 | 59 | 267 | 14.8 | 24.3 | 0.00 | 0.01 | 0.01 | 51 | 1012.2 |
| 20260831031539 | 59 | 257 | 14.8 | 25.2 | 0.00 | 0.01 | 0.01 | 50 | 1012.2 |
| 20260831030038 | 58 | 259 | 15.6 | 25.2 | 0.00 | 0.01 | 0.01 | 51 | 1011.9 |
| 20260831024541 | 59 | 247 | 14.8 | 25.2 | 0.00 | 0.01 | 0.01 | 50 | 1011.9 |
| 20260831023037 | 59 | 250 | 16.5 | 26.1 | 0.00 | 0.01 | 0.01 | 50 | 1011.7 |
| 20260831021538 | 59 | 281 | 18.2 | 26.9 | 0.00 | 0.01 | 0.01 | 50 | 1011.4 |
| 20260831020036 | 59 | 243 | 13.9 | 23.5 | 0.00 | 0.01 | 0.01 | 50 | 1011.4 |
| 20260831014540 | 60 | 255 | 15.6 | 29.5 | 0.00 | 0.01 | 0.01 | 49 | 1011.3 |
| 20260831013039 | 61 | 261 | 14.8 | 29.5 | 0.00 | 0.01 | 0.01 | 48 | 1011.2 |
| 20260831011536 | 61 | 255 | 15.6 | 28.7 | 0.00 | 0.01 | 0.01 | 47 | 1011.3 |
| 20260831010040 | 59 | 289 | 11.3 | 21.7 | 0.00 | 0.01 | 0.01 | 52 | 1011.5 |
| 20260831004553 | 59 | 313 | 13.0 | 24.3 | 0.00 | 0.02 | 0.01 | 56 | 1011.6 |
| 20260831003034 | 60 | 288 | 12.2 | 20.0 | 0.00 | 0.02 | 0.01 | 54 | 1011.6 |
| 20260831001534 | 59 | 297 | 15.6 | 26.1 | 0.00 | 0.02 | 0.01 | 54 | 1011.7 |
| 20260831000035 | 61 | 277 | 20.9 | 29.5 | 0.00 | 0.02 | 0.01 | 46 | 1011.3 |
| 20260830234551 | 62 | 277 | 20.0 | 29.5 | 0.00 | 0.30 | 0.01 | 45 | 1011.2 |
| 20260830233034 | 63 | 286 | 18.2 | 32.2 | 0.00 | 0.30 | 0.01 | 43 | 1011.1 |
| 20260830231535 | 63 | 275 | 17.4 | 30.4 | 0.00 | 0.30 | 0.01 | 44 | 1011.1 |
| 20260830230036 | 63 | 282 | 23.5 | 33.9 | 0.00 | 0.30 | 0.01 | 42 | 1011.1 |
| 20260830224536 | 64 | 237 | 20.0 | 29.5 | 0.00 | 0.30 | 0.01 | 43 | 1011.1 |
| 20260830223040 | 62 | 236 | 15.6 | 21.7 | 0.00 | 0.30 | 0.01 | 46 | 1011.4 |
| 20260830221540 | 61 | 257 | 14.8 | 25.2 | 0.00 | 0.30 | 0.01 | 47 | 1011.5 |
| 20260830220037 | 61 | 247 | 18.2 | 26.9 | 0.00 | 0.30 | 0.01 | 48 | 1011.7 |
| 20260830214537 | 61 | 271 | 18.2 | 25.2 | 0.00 | 0.30 | 0.01 | 47 | 1011.8 |
| 20260830213038 | 61 | 232 | 17.4 | 31.3 | 0.00 | 0.30 | 0.01 | 46 | 1011.9 |
| 20260830211534 | 62 | 238 | 18.2 | 29.5 | 0.00 | 0.30 | 0.01 | 45 | 1011.9 |
| 20260830210041 | 62 | 255 | 15.6 | 32.2 | 0.00 | 0.30 | 0.01 | 45 | 1011.9 |
| 20260830204534 | 63 | 279 | 17.4 | 31.3 | 0.00 | 0.30 | 0.01 | 43 | 1011.9 |
| 20260830203046 | 62 | 360 | 22.6 | 31.3 | 0.00 | 0.30 | 0.01 | 46 | 1011.7 |
| 20260830201536 | 61 | 277 | 20.0 | 29.5 | 0.00 | 0.30 | 0.01 | 47 | 1011.8 |
| 20260830200032 | 62 | 266 | 20.0 | 29.5 | 0.00 | 0.30 | 0.01 | 45 | 1011.6 |
| 20260830194538 | 64 | 298 | 15.6 | 28.7 | 0.00 | 0.30 | 0.01 | 41 | 1011.6 |
| 20260830193038 | 63 | 238 | 18.2 | 29.5 | 0.00 | 0.30 | 0.01 | 42 | 1011.8 |
| 20260830191535 | 63 | 263 | 15.6 | 29.5 | 0.00 | 0.30 | 0.01 | 43 | 1011.7 |
| 20260830190038 | 63 | 246 | 17.4 | 26.9 | 0.00 | 0.30 | 0.01 | 41 | 1011.6 |
| 20260830184536 | 63 | 246 | 16.5 | 27.8 | 0.00 | 0.30 | 0.01 | 41 | 1011.5 |
| 20260830183036 | 63 | 276 | 16.5 | 26.1 | 0.00 | 0.30 | 0.01 | 40 | 1011.7 |
| 20260830181536 | 63 | 257 | 16.5 | 24.3 | 0.00 | 0.30 | 0.01 | 42 | 1011.8 |
| 20260830180042 | 63 | 239 | 15.6 | 23.5 | 0.00 | 0.30 | 0.01 | 41 | 1011.9 |
| 20260830174540 | 61 | 231 | 13.0 | 20.0 | 0.00 | 0.30 | 0.01 | 50 | 1011.9 |
| 20260830173050 | 60 | 241 | 13.0 | 19.1 | 0.00 | 0.30 | 0.01 | 50 | 1012.0 |
| 20260830171539 | 60 | 274 | 10.4 | 17.4 | 0.00 | 0.30 | 0.01 | 50 | 1012.3 |
| 20260830170035 | 59 | 209 | 8.7 | 13.9 | 0.00 | 0.30 | 0.01 | 54 | 1012.3 |
| 20260830164536 | 59 | 219 | 8.7 | 18.2 | 0.00 | 0.30 | 0.01 | 54 | 1012.5 |
| 20260830163040 | 58 | 209 | 7.0 | 13.0 | 0.00 | 0.30 | 0.01 | 52 | 1012.5 |
| 20260830161534 | 59 | 243 | 7.0 | 12.2 | 0.00 | 0.30 | 0.01 | 50 | 1012.3 |
| 20260830160037 | 58 | 258 | 7.0 | 13.0 | 0.00 | 0.30 | 0.01 | 50 | 1012.6 |
| 20260830154538 | 58 | 254 | 7.0 | 10.4 | 0.00 | 0.30 | 0.01 | 50 | 1012.6 |
| 20260830153037 | 57 | 244 | 4.3 | 8.7 | 0.00 | 0.30 | 0.01 | 52 | 1012.7 |
| 20260830151537 | 57 | 291 | 4.3 | 7.8 | 0.00 | 0.30 | 0.01 | 52 | 1012.8 |
| 20260830150054 | 57 | 294 | 2.6 | 7.8 | 0.00 | 0.30 | 0.01 | 54 | 1012.9 |
| 20260830144539 | 57 | 289 | 4.3 | 8.7 | 0.00 | 0.30 | 0.01 | 55 | 1013.0 |
| 20260830143041 | 56 | 317 | 2.6 | 7.0 | 0.00 | 0.30 | 0.01 | 58 | 1012.9 |
| 20260830141537 | 55 | 297 | 2.6 | 7.8 | 0.00 | 0.30 | 0.01 | 60 | 1013.0 |
| 20260830140040 | 54 | 53 | 0.0 | 2.6 | 0.00 | 0.30 | 0.01 | 70 | 1013.2 |
| 20260830134545 | 54 | 120 | 4.3 | 7.8 | 0.00 | 0.30 | 0.01 | 73 | 1013.3 |
| 20260830133035 | 55 | 155 | 0.9 | 8.7 | 0.00 | 0.30 | 0.01 | 67 | 1013.2 |
| 20260830131540 | 55 | 263 | 7.0 | 11.3 | 0.00 | 0.30 | 0.01 | 65 | 1012.8 |
| 20260830130034 | 56 | 261 | 7.0 | 9.6 | 0.00 | 0.30 | 0.01 | 67 | 1012.8 |
| 20260830124541 | 55 | 277 | 5.2 | 7.8 | 0.00 | 0.30 | 0.01 | 78 | 1012.5 |
| 20260830123038 | 55 | 305 | 5.2 | 7.0 | 0.00 | 0.30 | 0.01 | 82 | 1012.2 |
| 20260830121534 | 55 | 273 | 4.3 | 7.8 | 0.00 | 0.30 | 0.01 | 83 | 1012.0 |
| 20260830120042 | 55 | 279 | 5.2 | 10.4 | 0.00 | 0.30 | 0.01 | 82 | 1012.2 |
| 20260830114544 | 54 | 262 | 7.8 | 11.3 | 0.00 | 0.30 | 0.01 | 82 | 1012.4 |
| 20260830113034 | 54 | 280 | 8.7 | 14.8 | 0.00 | 0.30 | 0.01 | 82 | 1012.2 |
| 20260830111534 | 55 | 282 | 11.3 | 15.6 | 0.00 | 0.30 | 0.01 | 81 | 1012.2 |
| 20260830110039 | 55 | 300 | 6.1 | 9.6 | 0.00 | 0.30 | 0.01 | 81 | 1012.0 |
| 20260830104538 | 55 | 281 | 6.1 | 10.4 | 0.00 | 0.30 | 0.01 | 82 | 1011.8 |
| 20260830103047 | 55 | 302 | 5.2 | 9.6 | 0.00 | 0.30 | 0.01 | 81 | 1011.3 |
| 20260830101536 | 55 | 263 | 8.7 | 15.6 | 0.00 | 0.30 | 0.01 | 81 | 1011.6 |
| 20260830100039 | 56 | 280 | 7.0 | 11.3 | 0.00 | 0.30 | 0.01 | 80 | 1011.4 |
| 20260830094539 | 55 | 263 | 8.7 | 11.3 | 0.00 | 0.30 | 0.01 | 84 | 1011.6 |
| 20260830093052 | 55 | 215 | 6.1 | 9.6 | 0.00 | 0.30 | 0.01 | 85 | 1011.6 |
| 20260830091539 | 55 | 219 | 9.6 | 13.0 | 0.00 | 0.30 | 0.01 | 83 | 1011.7 |
| 20260830090035 | 55 | 254 | 10.4 | 21.7 | 0.01 | 0.30 | 0.01 | 83 | 1011.9 |
| 20260830084535 | 55 | 229 | 12.2 | 23.5 | 0.01 | 0.30 | 0.01 | 82 | 1012.2 |
| 20260830083038 | 56 | 230 | 15.6 | 25.2 | 0.01 | 0.30 | 0.01 | 82 | 1012.3 |
| 20260830081537 | 56 | 225 | 17.4 | 25.2 | 0.01 | 0.30 | 0.01 | 86 | 1012.6 |
| 20260830080036 | 57 | 238 | 14.8 | 27.8 | 0.00 | 0.29 | 0.00 | 86 | 1013.1 |
| 20260830074536 | 58 | 242 | 20.9 | 28.7 | 0.00 | 0.29 | 0.00 | 84 | 1012.4 |
| 20260830073036 | 57 | 227 | 13.0 | 18.2 | 0.00 | 0.29 | 0.00 | 88 | 1012.3 |
| 20260830071607 | 56 | 260 | 7.8 | 13.9 | 0.00 | 0.29 | 0.00 | 88 | 1011.7 |
| 20260830070040 | 57 | 274 | 8.7 | 13.9 | 0.00 | 0.29 | 0.00 | 84 | 1011.8 |
| 20260830064534 | 57 | 198 | 6.1 | 7.8 | 0.00 | 0.29 | 0.00 | 83 | 1011.6 |
| 20260830063038 | 56 | 184 | 4.3 | 6.1 | 0.00 | 0.29 | 0.00 | 86 | 1011.6 |
| 20260830061534 | 56 | 196 | 4.3 | 6.1 | 0.00 | 0.29 | 0.00 | 84 | 1011.5 |